Theta_e
344 342 342 344 344 343 342 338 330 325 326 333 339 347 349 348 349 348 347 346 344 343 342 341 341 343 345 346 348 345 343 339 337 334 334 336 337 338
342 341 341 344 346 345 344 341 338 332 328 334 340 343 349 346 349 347 345 346 346 343 341 337 338 342 342 343 344 342 340 337 333 332 332 333 335 335
342 342 343 342 342 346 346 341 341 338 334 337 340 343 343 342 345 345 348 349 349 343 341 337 336 340 340 340 340 339 337 334 332 330 331 331 333 335
343 342 342 346 342 342 344 340 342 341 338 334 338 340 341 342 343 342 346 348 343 343 338 337 336 337 336 334 334 333 331 330 329 328 328 329 332 334
345 342 342 342 341 340 340 341 341 343 342 339 338 340 341 341 341 343 344 342 344 344 339 339 337 335 333 331 329 327 325 324 324 324 325 326 329 332
346 345 343 342 342 342 340 341 341 340 339 338 337 337 338 342 340 339 340 340 340 344 341 341 339 338 336 332 330 328 322 319 319 320 321 323 325 324
348 349 348 347 345 343 345 343 342 341 339 338 337 336 337 336 335 338 337 336 336 337 340 342 343 345 343 337 338 335 327 322 319 318 319 320 320 321
345 345 347 347 346 340 338 340 343 342 340 339 338 337 337 336 336 336 333 331 329 338 340 341 344 346 345 343 339 333 328 324 321 319 318 318 318 320
346 346 347 351 344 349 342 337 336 335 339 344 340 339 337 337 336 333 331 332 332 337 341 341 341 340 343 341 334 332 327 324 321 320 319 318 317 316
348 348 348 349 347 346 347 346 347 347 342 339 342 345 342 344 338 339 336 334 337 340 343 338 338 340 341 340 333 330 326 322 320 319 318 316 313 312
342 344 347 348 340 333 342 345 346 346 341 332 333 333 332 332 335 338 338 334 340 338 341 339 338 335 335 336 337 328 324 320 317 317 317 314 312 310
343 342 332 341 331 326 341 345 343 345 345 346 346 340 333 337 331 338 342 339 342 335 340 337 334 334 333 335 337 334 327 318 314 314 314 313 310 320
341 344 344 322 318 319 319 338 342 335 336 337 340 343 346 346 346 341 341 343 342 342 344 341 336 332 332 334 337 338 331 326 320 318 309 309 308 316
337 341 340 322 316 315 321 325 322 322 330 333 335 338 340 342 345 348 348 345 348 348 351 343 339 338 334 336 336 337 337 332 325 324 322 314 308 309
331 324 316 316 317 323 321 322 322 332 332 331 335 338 342 344 345 342 344 349 348 348 349 348 345 347 344 339 338 340 336 338 329 329 323 324 322 317
323 324 321 318 317 321 327 331 334 333 333 334 336 340 342 341 341 342 341 341 339 342 345 348 348 345 342 342 342 340 342 337 338 332 331 325 325 325
307 318 319 319 320 321 323 328 332 335 336 339 339 339 341 342 342 342 340 339 336 338 340 341 342 345 345 344 341 342 342 343 344 344 331 333 329 328
312 314 315 316 316 318 320 324 326 330 333 335 338 342 342 343 342 342 339 338 337 338 338 341 341 337 338 343 342 343 344 344 346 345 342 340 341 334
308 309 311 313 315 319 327 326 322 321 323 326 326 329 333 337 340 341 341 340 339 339 341 343 338 337 332 330 336 331 345 346 345 342 345 344 342 345
307 309 312 314 321 321 318 315 314 314 316 316 318 322 325 328 333 336 338 340 341 342 342 342 337 338 335 334 334 338 317 341 341 341 343 344 344 328
312 315 316 314 313 312 308 308 309 310 311 312 313 315 319 321 322 328 334 322 327 338 336 337 340 329 338 335 332 332 336 317 328 340 341 338 339 338
309 312 311 310 309 308 307 307 309 309 309 309 310 311 313 316 318 321 323 327 332 335 335 337 337 333 334 334 332 333 334 336 326 315 318 325 334 332
300 304 310 308 308 307 306 306 304 305 307 307 308 308 310 310 313 315 317 319 328 334 336 335 335 333 333 333 328 330 330 331 333 332 326 316 318 322
Wind_Speed
2 1 1 0 1 0 1 1 2 2 3 4 3 2 2 4 5 5 6 9 11 10 10 11 11 7 7 6 4 4 3 3 5 5 6 8 8 7
2 2 2 1 2 1 1 0 1 3 1 2 2 3 4 4 6 6 6 9 11 9 9 11 10 6 6 7 6 5 5 3 3 3 5 6 7 6
3 4 5 2 2 1 1 0 0 2 2 3 2 2 3 4 6 5 5 5 5 10 12 11 11 8 6 8 6 7 6 4 4 3 4 5 7 7
5 5 6 3 4 3 2 2 2 2 2 3 2 3 3 3 3 4 4 4 5 8 11 9 9 10 8 8 7 7 6 5 4 2 3 4 6 6
6 5 6 4 5 3 3 3 3 2 2 2 3 2 3 2 2 3 3 4 4 9 9 7 9 9 10 9 7 7 7 7 6 4 2 4 6 7
6 6 6 6 7 6 4 5 3 2 2 2 3 3 3 3 2 2 5 2 5 6 5 5 9 10 9 10 8 7 9 9 7 6 3 4 5 6
6 6 6 7 10 8 4 5 4 4 3 3 3 2 3 3 2 1 3 3 4 2 4 4 4 5 5 6 7 9 10 10 8 7 6 4 4 5
7 7 7 8 9 11 11 13 8 5 5 3 3 4 5 3 2 2 2 2 4 1 3 6 2 7 5 5 9 8 10 10 10 9 8 7 6 5
7 6 6 6 9 7 9 11 10 11 13 5 6 6 4 5 3 2 4 4 4 4 2 8 0 5 5 5 10 9 8 10 11 11 9 7 6 6
7 7 8 9 7 7 7 7 7 7 7 6 9 9 8 8 6 5 4 4 3 4 4 5 0 6 5 6 7 7 6 7 10 12 10 8 6 6
7 8 9 10 10 12 7 9 9 9 7 12 13 14 13 11 6 2 5 2 6 3 3 3 4 4 3 4 3 3 3 6 8 10 10 8 8 6
5 7 11 12 11 11 8 8 9 9 6 6 5 7 10 9 11 9 6 6 6 4 4 4 2 2 5 3 2 3 2 7 8 9 9 8 8 3
4 5 2 8 9 10 11 7 9 1 4 5 5 6 6 5 5 7 9 8 7 8 6 4 3 2 4 4 3 3 4 3 3 4 10 11 11 9
4 4 4 8 10 11 8 12 12 7 3 4 4 6 6 7 7 8 10 10 10 14 9 8 4 4 3 6 8 3 3 5 4 4 5 6 11 11
3 5 7 11 13 10 8 9 10 4 4 4 7 8 7 8 9 6 6 9 11 11 10 9 8 10 7 8 10 10 5 3 5 5 4 6 6 6
6 5 6 8 9 9 7 5 4 4 4 5 5 6 6 5 7 7 9 7 5 8 9 12 12 10 9 10 9 11 8 5 3 5 5 4 6 8
10 4 3 2 4 4 4 4 4 4 4 5 6 7 7 7 7 6 6 6 6 8 9 4 7 10 11 14 10 10 10 9 8 8 5 5 6 9
3 4 5 4 4 4 4 4 3 4 5 7 7 7 7 7 8 7 4 6 8 8 8 7 3 2 4 9 14 9 8 9 8 6 7 7 8 6
2 4 5 6 4 4 2 4 4 4 5 5 7 8 8 9 9 8 7 7 8 8 9 7 4 5 10 13 4 14 7 7 5 5 7 8 8 7
3 6 7 6 5 2 2 2 6 5 4 5 5 6 8 9 9 9 9 9 9 9 9 7 6 9 11 13 9 7 12 5 6 9 6 5 7 3
8 7 5 5 4 4 4 3 4 4 6 8 7 6 7 8 10 10 10 11 10 10 12 10 10 9 7 2 4 7 7 13 9 5 4 4 7 4
9 5 3 2 2 3 3 4 4 5 5 7 8 7 7 6 9 10 11 13 11 9 11 10 7 3 4 6 11 13 11 7 4 8 7 10 4 4
9 11 9 4 3 4 3 4 5 6 5 8 7 9 8 9 9 8 11 12 13 12 10 11 8 4 7 8 10 10 15 13 8 9 3 4 9 8
Wind_Direction
235 234 257 216 166 67 49 162 149 25 325 321 2 334 324 331 302 304 297 302 317 324 323 325 324 298 221 227 258 274 291 322 337 5 348 339 338 333
221 234 252 266 209 175 158 196 129 142 322 240 300 309 321 338 303 321 321 326 324 326 345 353 351 327 223 232 240 248 270 301 343 1 343 342 335 328
225 221 247 259 276 240 198 206 138 154 156 298 271 298 302 329 332 335 357 355 344 347 351 349 354 345 265 252 240 240 255 278 322 355 345 346 336 323
245 217 245 243 252 242 197 217 215 235 162 255 275 284 261 286 283 299 339 342 346 333 335 343 349 338 303 276 260 242 247 256 276 314 328 340 333 319
244 234 247 237 263 253 241 231 199 210 207 207 273 272 273 289 309 286 300 321 321 324 325 321 322 318 308 301 279 241 232 239 245 254 289 327 326 326
252 251 241 215 233 249 246 262 265 269 216 226 255 267 255 292 289 305 325 338 316 323 297 278 289 286 283 289 288 242 222 224 228 242 232 281 310 322
247 258 257 246 235 234 216 255 219 234 245 244 266 252 268 298 278 256 259 294 293 256 299 302 313 313 301 278 270 249 229 220 207 228 239 245 274 292
243 246 247 264 268 259 244 244 229 228 247 197 236 243 257 241 240 256 249 334 323 250 314 304 245 302 300 290 271 265 234 212 205 212 219 235 248 260
225 245 257 247 239 251 256 250 249 233 228 221 232 232 248 235 206 247 230 208 234 273 350 298 298 295 303 289 277 276 238 212 195 206 216 226 242 245
231 227 238 256 239 230 246 260 258 250 233 214 227 248 232 255 204 222 226 241 269 256 189 267 344 289 304 294 307 322 280 212 193 202 208 205 226 248
232 225 226 246 250 235 237 250 261 261 243 233 229 238 242 251 253 140 268 218 291 258 211 243 288 283 270 282 290 348 270 239 210 211 214 196 204 225
262 248 230 235 238 237 223 241 256 259 248 266 271 263 249 252 236 211 242 248 262 292 234 184 231 200 313 259 256 234 233 229 223 222 217 203 197 196
286 308 346 16 336 274 214 223 238 281 289 288 269 269 267 246 242 214 215 220 241 241 233 188 223 217 228 283 279 235 208 217 215 226 212 208 201 201
339 328 332 311 312 292 286 286 275 280 253 258 254 262 262 260 244 228 223 221 230 241 256 198 232 200 208 278 285 285 239 234 201 226 200 190 203 212
318 311 302 289 287 293 280 273 271 263 269 263 267 274 268 272 274 265 251 235 241 243 246 231 230 255 250 255 269 278 279 253 206 223 194 200 193 185
331 311 285 280 270 265 297 305 298 262 253 259 267 273 279 273 268 266 271 265 241 261 228 232 229 220 241 245 252 267 264 252 203 212 216 200 205 206
320 304 329 327 322 315 314 295 296 289 293 284 278 276 277 278 273 263 251 258 243 261 268 251 230 223 230 236 240 240 254 255 238 242 170 233 218 211
310 300 301 292 296 305 305 303 300 314 345 336 320 301 289 282 280 276 255 255 255 256 253 253 233 283 285 270 232 249 249 256 255 223 219 236 254 215
291 298 286 285 274 268 293 11 343 327 312 329 340 327 316 313 292 287 274 259 259 260 253 251 234 231 272 273 246 224 243 257 255 238 214 216 240 246
301 293 294 290 287 2 18 353 318 316 331 332 312 317 320 316 314 308 298 282 274 269 265 251 239 245 247 260 277 287 202 257 263 269 255 237 244 256
326 337 354 6 13 351 331 321 307 307 315 314 313 306 313 318 310 304 299 290 281 286 280 269 262 258 265 324 266 266 267 235 238 247 290 273 258 234
311 295 282 283 305 311 302 308 301 307 306 309 305 301 298 296 299 311 311 306 294 276 270 274 277 228 213 238 263 277 280 262 238 194 204 194 190 264
306 311 301 265 250 254 269 283 283 280 278 294 292 293 296 296 293 290 294 295 292 285 282 278 269 228 248 253 262 275 277 278 255 236 209 331 214 156